Wind_Speed
12 11 12 12 11 12 13 14 15 16 16 15 14 13 12 11 10 10 10 11 11 12 12 12 13 13 14 14 15 16 17 18 19 20 20 21 22 22 23 23 23 22 22
9 8 8 8 8 9 10 11 12 13 14 14 13 12 12 11 10 10 10 11 11 12 12 13 13 14 14 16 17 18 19 20 22 23 23 24 24 25 25 25 25 26 25
6 5 6 6 6 6 6 7 9 10 11 11 11 11 11 11 10 10 11 11 12 12 13 14 14 15 16 17 18 19 20 22 23 24 25 26 26 26 27 27 27 28 28
6 6 6 5 4 4 4 5 6 7 9 9 9 10 10 10 10 10 11 11 12 13 14 15 15 16 17 18 20 21 22 23 24 25 26 27 28 28 28 28 29 29 31
6 6 6 5 4 3 3 4 4 6 7 8 8 8 9 9 9 10 10 11 12 13 14 15 16 17 18 19 21 22 23 24 25 26 27 28 29 29 30 30 30 30 31
6 6 5 4 3 1 1 2 3 4 5 6 6 6 6 7 8 9 10 11 12 13 14 15 16 17 18 19 20 21 23 24 25 26 27 28 29 29 29 29 29 29 29
6 6 5 3 2 1 1 2 3 3 4 5 5 6 6 7 8 10 11 12 13 14 15 16 17 18 19 20 21 22 23 24 25 26 26 27 27 28 28 28 28 28 28
5 4 3 2 2 1 2 3 3 4 4 5 6 7 8 9 10 11 13 14 15 16 16 17 18 18 20 21 23 24 24 25 27 28 28 28 28 27 27 27 27 27 28
5 4 3 2 2 3 3 4 5 6 7 8 9 10 10 11 12 13 14 15 15 16 17 17 18 20 21 22 24 25 26 27 29 29 30 30 30 29 29 29 29 29 29
6 5 3 3 4 5 5 6 8 8 9 10 11 12 12 13 14 14 14 15 15 16 17 18 19 21 22 24 25 27 28 29 31 31 32 32 33 33 32 32 32 31 31
8 7 5 5 5 6 7 8 9 10 11 12 13 13 14 14 14 14 15 16 17 18 18 19 20 21 23 24 25 27 28 30 32 33 34 34 35 35 35 35 35 34 34
10 9 7 7 7 7 8 8 10 11 12 13 14 15 15 15 15 16 17 18 18 19 19 19 20 21 22 22 24 25 27 29 31 32 33 34 35 37 38 38 38 38 38
11 10 10 9 9 9 10 10 11 12 13 14 15 15 16 16 16 18 18 18 18 18 18 19 20 21 22 23 24 26 27 29 31 33 33 34 36 38 39 40 41 42 42
12 11 11 11 11 11 11 11 11 12 13 14 15 15 16 15 16 17 17 17 17 18 19 20 21 22 24 25 27 28 30 31 33 35 36 37 39 41 42 42 43 44 44
14 13 13 13 12 12 11 11 11 11 12 13 14 14 14 14 15 15 15 16 17 18 20 22 24 26 28 30 31 33 35 37 38 40 42 42 44 45 46 46 47 47 48
16 15 15 14 14 13 11 10 10 10 11 12 13 13 13 13 14 14 15 17 18 20 22 24 26 29 31 33 36 38 40 42 44 46 48 49 49 50 50 51 51 51 51
18 17 17 17 16 14 12 11 10 10 11 12 13 14 15 15 15 16 16 17 19 20 23 25 28 31 34 37 39 42 44 46 49 50 52 55 55 56 55 56 56 55 55
21 20 20 19 18 17 15 13 12 12 13 15 17 18 19 19 19 20 20 21 23 24 26 29 32 35 38 40 43 45 47 50 52 54 56 58 59 60 60 60 59 59 58
23 23 22 22 21 20 18 16 16 15 16 19 20 22 23 24 25 25 25 27 28 30 32 35 38 40 43 45 47 48 50 53 55 57 60 61 63 63 63 64 62 61 61
27 26 25 25 25 24 22 20 19 19 20 22 23 25 26 28 29 30 31 32 34 36 38 40 43 45 47 49 50 52 54 56 58 60 62 64 66 66 66 65 63 62 61
30 30 29 30 30 29 27 25 23 22 23 25 27 28 30 31 32 33 35 37 38 40 42 45 47 49 51 52 53 55 57 59 61 63 65 66 67 66 65 63 61 59 57
34 34 34 34 35 34 31 29 27 26 27 28 30 32 33 35 36 37 39 41 42 44 46 48 50 52 54 55 57 58 59 60 62 63 63 62 62 61 58 56 53 52 51
36 37 37 37 38 37 35 34 32 32 33 32 33 35 36 38 39 41 43 45 47 49 50 51 52 54 57 58 59 59 59 59 60 59 58 54 51 49 49 48 48 47 46
38 39 39 39 39 40 39 38 36 37 37 38 39 41 42 43 44 46 47 48 49 51 53 54 55 57 58 59 60 60 59 58 56 54 51 48 44 43 44 45 45 46 47
40 41 42 42 42 42 42 40 40 41 41 42 44 46 48 49 50 50 51 52 53 54 54 56 57 58 59 59 60 60 59 57 54 52 48 46 43 43 43 45 47 48 50
42 44 45 44 44 44 44 43 43 44 44 47 49 50 52 52 53 53 53 54 54 54 55 57 58 59 59 59 59 59 58 56 54 51 49 48 47 46 47 49 51 53 54
Wind_Direction
289 286 286 288 286 279 271 266 262 260 258 256 255 255 254 253 252 253 255 255 255 254 254 253 254 254 255 255 256 257 256 256 257 259 261 262 263 264 265 267 267 266 266
296 298 296 297 295 288 278 269 262 259 256 254 253 255 257 258 258 258 258 260 261 261 261 261 260 259 258 258 258 258 259 259 260 262 263 265 266 266 267 268 268 268 267
321 324 321 315 304 294 283 271 261 254 251 250 251 255 259 263 264 263 264 266 266 266 265 265 264 263 262 260 260 261 262 263 264 265 266 268 269 269 270 270 271 270 269
345 347 344 336 323 303 280 265 251 242 240 241 245 252 258 264 266 267 269 270 270 270 270 269 269 269 269 268 267 267 267 267 268 269 270 272 273 273 273 272 273 272 271
340 347 350 346 341 323 274 247 236 234 235 239 245 252 259 265 267 270 273 275 275 276 277 277 277 276 276 275 275 274 273 272 273 273 273 274 275 276 276 276 275 274 273
328 331 329 324 331 338 239 215 224 231 236 242 249 258 267 272 276 278 279 280 280 281 281 281 281 279 279 279 279 278 278 277 277 277 277 276 277 278 279 279 277 277 276
324 321 312 299 298 281 203 210 213 224 238 246 253 264 272 276 281 284 286 286 286 285 285 285 284 282 281 281 280 279 280 280 281 281 280 279 280 280 280 279 279 277 277
341 327 310 283 281 278 251 242 238 242 252 260 266 271 274 279 282 286 287 287 287 286 286 285 284 282 281 280 280 280 281 282 282 283 283 283 283 281 280 280 279 277 276
1 352 337 312 298 291 284 277 274 273 274 274 276 280 283 285 287 288 290 289 288 288 287 287 285 283 281 281 281 281 281 281 281 281 281 281 281 280 280 279 278 277 276
10 4 1 345 317 302 298 295 292 290 288 288 289 291 292 292 292 291 291 291 290 289 288 288 286 285 283 282 282 281 281 280 279 279 279 279 279 279 278 278 277 277 275
6 1 1 348 331 318 312 306 303 301 298 298 299 299 299 298 297 297 296 294 293 292 291 290 288 287 286 285 285 284 283 281 281 280 280 280 280 279 279 278 277 276 275
359 354 346 342 334 324 321 318 313 310 307 304 302 302 303 303 303 304 302 300 298 298 298 296 295 293 292 292 291 289 288 285 284 283 282 282 281 280 279 278 277 276 274
348 344 340 336 331 328 323 319 316 313 311 309 305 305 308 307 306 306 305 305 304 304 304 303 301 299 298 297 296 293 291 289 287 285 284 282 281 280 279 277 276 274 273
339 334 333 332 331 329 325 322 320 317 316 315 313 310 310 309 308 307 306 305 305 304 304 303 301 299 298 296 295 292 291 289 288 286 285 283 281 280 278 276 274 273 272
333 328 326 327 327 327 324 322 324 323 321 319 318 315 313 310 309 307 305 304 305 305 305 304 303 301 300 298 296 294 291 290 288 286 285 283 281 279 278 276 274 273 271
320 321 321 320 320 321 320 319 319 321 321 321 320 318 315 311 308 305 304 305 305 306 307 307 307 305 303 301 299 297 294 292 290 287 285 283 280 278 277 275 274 273 271
307 310 313 314 313 311 309 307 308 313 316 317 317 316 314 312 309 306 306 305 306 307 309 310 310 308 306 303 299 296 293 291 289 286 284 282 280 278 276 275 274 273 271
296 300 303 305 303 300 298 294 295 300 304 308 310 311 310 308 305 303 302 302 303 304 307 309 311 310 308 305 301 297 294 290 288 285 282 280 278 277 276 274 273 272 271
287 291 294 296 294 291 288 287 287 291 296 302 304 306 306 303 301 300 299 299 299 300 302 305 306 307 306 304 301 297 294 290 287 284 281 279 277 276 274 273 271 271 271
280 283 287 288 286 284 280 280 281 287 294 299 301 301 301 298 296 296 297 296 296 297 299 301 302 303 303 302 299 297 294 291 288 285 282 280 278 276 274 273 272 270 270
275 277 280 282 283 280 276 274 279 284 291 296 299 299 298 295 293 294 295 294 294 295 297 299 300 301 302 301 299 297 294 292 289 286 284 282 280 278 275 273 272 271 270
272 274 277 280 282 280 279 277 282 288 295 297 298 299 299 295 292 293 294 295 294 295 296 299 299 300 300 300 298 297 294 292 290 289 286 283 281 278 276 273 272 271 269
270 271 274 278 282 284 285 286 290 294 297 297 299 299 300 298 296 295 295 296 296 296 297 298 299 299 299 298 298 297 295 293 292 290 288 285 282 278 275 272 271 269 267
269 271 275 279 283 286 288 290 293 296 298 299 300 300 300 300 300 299 299 299 298 297 297 298 298 298 298 298 297 297 295 294 292 291 288 285 281 277 274 273 271 270 268
270 273 276 279 283 286 288 290 293 296 297 298 299 301 301 300 301 301 301 301 300 299 298 298 298 298 298 297 296 295 294 292 291 288 286 283 280 278 275 273 272 272 271
272 275 277 279 283 285 287 289 293 294 295 298 300 301 302 301 301 302 302 302 300 299 298 298 297 297 296 295 295 293 292 290 288 286 284 283 281 279 277 276 275 274 273
Height
5898 5897 5896 5895 5894 5894 5894 5894 5895 5895 5895 5895 5895 5896 5896 5896 5896 5896 5897 5897 5898 5898 5898 5899 5899 5900 5900 5900 5900 5901 5901 5901 5901 5901 5901 5901 5901 5901 5901 5901 5901 5902 5902
5896 5895 5894 5893 5892 5892 5892 5892 5892 5892 5893 5893 5893 5893 5893 5894 5894 5894 5894 5895 5895 5896 5896 5896 5897 5897 5897 5897 5897 5897 5897 5897 5898 5898 5897 5897 5897 5897 5898 5898 5898 5898 5898
5894 5893 5892 5891 5891 5890 5890 5890 5890 5890 5891 5891 5891 5891 5891 5891 5891 5891 5891 5892 5892 5893 5893 5893 5893 5894 5894 5894 5894 5894 5894 5894 5894 5893 5893 5893 5893 5893 5893 5893 5893 5893 5893
5892 5891 5890 5890 5889 5889 5889 5889 5889 5889 5889 5889 5889 5889 5888 5888 5888 5888 5889 5889 5889 5889 5890 5890 5890 5890 5890 5890 5890 5890 5890 5890 5889 5889 5889 5888 5888 5888 5888 5888 5888 5888 5888
5891 5890 5889 5889 5888 5888 5887 5887 5887 5887 5887 5887 5887 5887 5887 5886 5886 5886 5886 5886 5886 5886 5886 5886 5887 5887 5886 5886 5886 5885 5885 5885 5885 5884 5884 5883 5883 5883 5883 5883 5882 5882 5882
5890 5889 5888 5888 5887 5887 5886 5886 5886 5886 5886 5885 5885 5885 5885 5885 5884 5884 5884 5884 5883 5883 5883 5883 5883 5883 5883 5882 5881 5881 5880 5880 5879 5879 5879 5878 5877 5877 5877 5877 5877 5876 5876
5889 5888 5887 5887 5886 5885 5885 5885 5884 5884 5884 5884 5884 5884 5883 5883 5883 5882 5882 5881 5881 5881 5881 5881 5880 5880 5879 5878 5877 5877 5876 5875 5874 5874 5873 5872 5872 5872 5871 5871 5871 5871 5871
5888 5887 5886 5885 5885 5884 5884 5884 5883 5883 5883 5883 5882 5882 5881 5881 5881 5880 5879 5879 5879 5878 5878 5877 5877 5876 5876 5875 5874 5873 5872 5871 5869 5868 5867 5867 5867 5866 5866 5866 5865 5865 5865
5888 5886 5885 5884 5883 5883 5882 5882 5882 5881 5881 5881 5880 5880 5879 5879 5878 5877 5877 5876 5875 5875 5874 5874 5873 5872 5872 5871 5870 5869 5868 5866 5865 5863 5862 5861 5861 5860 5860 5860 5860 5860 5859
5887 5886 5885 5884 5883 5882 5881 5880 5880 5879 5879 5878 5878 5877 5876 5875 5875 5874 5873 5872 5871 5871 5870 5869 5868 5868 5867 5866 5865 5864 5863 5861 5860 5858 5857 5856 5855 5854 5854 5853 5853 5853 5853
5887 5886 5884 5883 5882 5880 5879 5879 5878 5877 5876 5875 5874 5874 5873 5872 5871 5870 5869 5868 5867 5866 5865 5864 5863 5862 5861 5860 5859 5858 5857 5856 5854 5852 5851 5850 5849 5848 5847 5846 5846 5846 5846
5887 5885 5884 5882 5881 5879 5878 5877 5875 5874 5873 5872 5871 5870 5869 5868 5867 5866 5865 5864 5863 5862 5860 5859 5858 5857 5856 5855 5854 5853 5851 5850 5848 5846 5845 5844 5843 5841 5840 5839 5838 5838 5837
5886 5884 5883 5881 5880 5878 5876 5875 5873 5872 5871 5870 5868 5867 5866 5865 5864 5862 5861 5860 5858 5857 5856 5854 5853 5852 5851 5849 5848 5846 5845 5843 5841 5839 5838 5837 5835 5834 5832 5831 5829 5829 5828
5885 5883 5882 5880 5878 5876 5875 5873 5871 5870 5868 5867 5865 5864 5863 5861 5860 5859 5857 5855 5854 5853 5851 5850 5848 5847 5845 5843 5842 5840 5838 5836 5834 5831 5830 5828 5826 5824 5822 5821 5819 5818 5817
5884 5882 5880 5878 5877 5875 5873 5871 5869 5868 5866 5864 5863 5861 5859 5858 5857 5855 5853 5852 5850 5849 5847 5845 5843 5841 5839 5837 5835 5832 5830 5828 5825 5823 5820 5819 5816 5814 5812 5810 5808 5807 5806
5882 5880 5878 5876 5875 5873 5871 5869 5867 5865 5863 5862 5860 5858 5856 5855 5853 5851 5849 5848 5846 5844 5842 5839 5837 5835 5832 5829 5827 5824 5821 5818 5815 5812 5809 5806 5804 5802 5800 5798 5796 5795 5794
5878 5877 5875 5873 5872 5870 5868 5866 5865 5863 5861 5859 5857 5855 5853 5851 5849 5847 5845 5843 5840 5838 5835 5833 5830 5827 5825 5821 5818 5815 5811 5807 5804 5800 5796 5793 5790 5788 5786 5784 5782 5781 5780
5875 5873 5872 5870 5868 5867 5865 5863 5861 5859 5857 5855 5853 5851 5849 5847 5845 5842 5840 5837 5834 5831 5829 5826 5823 5819 5816 5812 5808 5804 5800 5796 5792 5788 5783 5779 5775 5773 5771 5769 5768 5766 5765
5870 5869 5867 5865 5864 5862 5860 5858 5856 5854 5852 5850 5848 5846 5844 5842 5839 5836 5834 5831 5827 5824 5821 5818 5814 5810 5806 5802 5798 5793 5788 5783 5779 5774 5769 5765 5760 5758 5755 5752 5752 5751 5750
5865 5864 5862 5860 5858 5856 5854 5852 5850 5848 5846 5845 5843 5840 5838 5836 5833 5830 5827 5823 5820 5816 5812 5809 5804 5800 5795 5790 5785 5780 5775 5769 5764 5758 5753 5748 5744 5741 5738 5736 5735 5735 5734
5860 5858 5856 5854 5851 5849 5846 5844 5843 5841 5839 5838 5836 5834 5831 5828 5825 5822 5819 5815 5811 5807 5802 5798 5793 5788 5783 5778 5772 5766 5760 5754 5748 5742 5736 5731 5727 5723 5721 5719 5719 5718 5718
5854 5852 5850 5847 5843 5840 5838 5836 5834 5833 5831 5830 5828 5825 5823 5820 5816 5813 5809 5805 5801 5796 5792 5787 5781 5775 5769 5763 5757 5751 5745 5739 5731 5725 5720 5714 5710 5706 5704 5703 5703 5703 5702
5847 5845 5843 5840 5836 5833 5830 5828 5826 5825 5823 5821 5819 5816 5813 5810 5806 5803 5798 5793 5789 5784 5779 5773 5768 5761 5755 5748 5741 5735 5729 5723 5716 5709 5703 5698 5694 5691 5689 5688 5688 5688 5688
5839 5837 5835 5833 5829 5826 5823 5820 5818 5816 5814 5812 5809 5806 5802 5799 5795 5791 5786 5781 5776 5770 5765 5759 5753 5747 5740 5733 5726 5719 5713 5706 5700 5696 5690 5686 5682 5679 5677 5676 5675 5675 5674
5831 5829 5827 5825 5822 5819 5815 5812 5810 5807 5805 5802 5799 5795 5791 5787 5782 5778 5773 5768 5762 5756 5751 5745 5738 5732 5725 5718 5711 5704 5697 5691 5686 5682 5679 5675 5671 5668 5666 5664 5662 5661 5660
5824 5821 5819 5816 5814 5811 5807 5804 5801 5798 5795 5792 5788 5784 5779 5774 5770 5765 5760 5754 5748 5742 5736 5730 5723 5717 5710 5703 5696 5689 5683 5678 5672 5668 5665 5661 5659 5657 5653 5650 5648 5646 5645